SUNNYSIDE Weather Reports


time (UTC)temp
F
wind
direction
speed
knots
gust
knots
rain 1hr
in
rain 24hr
in
rain mn
in
humidity
%
barometer
mb
20260505112027 28 330 8.7 15.6 0.00 0.00 0.00 52 981.5
20260505111533 28 322 10.4 15.6 0.00 0.00 0.00 52 981.4
20260505111025 28 313 7.8 11.3 0.00 0.00 0.00 53 981.5
20260505110525 28 301 7.0 12.2 0.00 0.00 0.00 53 981.3
20260505102022 28 319 7.8 13.9 0.00 0.00 0.00 54 981.1
20260505101518 28 298 8.7 13.9 0.00 0.00 0.00 55 981.0
20260505101017 28 319 6.1 12.2 0.00 0.00 0.00 56 981.1
20260505100517 28 309 6.1 11.3 0.00 0.00 0.00 56 981.0
20260505100016 28 317 5.2 11.3 0.00 0.00 0.00 56 980.9
20260505095517 28 289 7.0 11.3 0.00 0.00 0.00 57 980.9
20260505095017 28 323 4.3 11.3 0.00 0.00 0.00 57 980.8
20260505094515 28 336 6.1 11.3 0.00 0.00 0.00 57 980.8
20260505094013 28 311 7.0 11.3 0.00 0.00 0.00 56 980.8
20260505093513 28 342 6.1 11.3 0.00 0.00 0.00 56 980.8
20260505093013 28 295 7.0 13.9 0.00 0.00 0.00 56 980.7
20260505092511 28 325 8.7 13.9 0.00 0.00 0.00 56 980.7
20260505092011 29 288 7.0 11.3 0.00 0.00 0.00 56 980.6
20260505091510 29 324 4.3 9.6 0.00 0.00 0.00 56 980.5
20260505091010 29 287 4.3 8.7 0.00 0.00 0.00 56 980.5
20260505090509 29 337 4.3 9.6 0.00 0.00 0.00 56 980.5
20260505090010 29 341 6.1 10.4 0.00 0.00 0.00 56 980.5
20260505085509 29 333 7.0 10.4 0.00 0.00 0.00 56 980.4
20260505085009 29 329 5.2 9.6 0.00 0.00 0.00 56 980.3
20260505084509 29 343 4.3 11.3 0.00 0.00 0.00 56 980.4
20260505084007 29 351 7.0 11.3 0.00 0.00 0.00 56 980.2
20260505083509 29 344 7.0 12.2 0.00 0.00 0.00 56 980.2
20260505083007 29 333 7.8 12.2 0.00 0.00 0.00 56 980.3
20260505082510 29 355 7.8 12.2 0.00 0.00 0.00 56 980.1
20260505082005 29 346 7.0 15.6 0.00 0.00 0.00 56 980.1
20260505081505 29 325 9.6 15.6 0.00 0.00 0.00 57 980.1
20260505081003 29 320 8.7 13.9 0.00 0.00 0.00 57 980.0
20260505080506 29 296 8.7 13.0 0.00 0.00 0.00 57 980.0
20260505080002 29 340 7.8 16.5 0.00 0.00 0.00 57 979.9
20260505075503 30 333 11.3 16.5 0.00 0.00 0.00 57 980.0
20260505075002 30 326 9.6 14.8 0.00 0.00 0.00 57 980.0
20260505074502 30 277 7.8 16.5 0.00 0.00 0.00 57 979.9
20260505074001 30 314 11.3 17.4 0.00 0.00 0.00 56 979.9
20260505073503 30 304 10.4 17.4 0.00 0.00 0.00 56 980.0
20260505073102 30 341 9.6 15.6 0.00 0.00 0.00 56 980.1
20260505072559 30 300 9.6 14.8 0.00 0.00 0.00 56 980.0
20260505072058 30 318 10.4 14.8 0.00 0.00 0.00 55 979.9
20260505071558 30 333 7.8 13.9 0.00 0.00 0.00 55 979.9
20260505071057 30 334 10.4 14.8 0.00 0.00 0.00 54 980.0
20260505070556 31 315 8.7 14.8 0.00 0.00 0.00 54 979.9
20260505070105 31 309 9.6 15.6 0.00 0.00 0.00 54 979.9
20260505065555 31 310 8.7 15.6 0.00 0.00 0.00 54 980.0
20260505065054 31 300 7.8 15.6 0.00 0.00 0.00 54 980.0
20260505064639 31 333 8.7 13.9 0.00 0.00 0.00 54 979.9
20260505064055 31 334 9.6 13.9 0.00 0.00 0.00 55 980.0
20260505063555 31 344 10.4 13.9 0.00 0.00 0.00 55 979.9
20260505063056 31 309 8.7 14.8 0.00 0.00 0.00 55 979.9
20260505062554 31 344 9.6 14.8 0.00 0.00 0.00 55 979.9
20260505062053 31 340 11.3 14.8 0.00 0.00 0.00 54 979.9
20260505061553 31 302 9.6 16.5 0.00 0.00 0.00 55 979.8
20260505061052 31 327 9.6 16.5 0.00 0.00 0.00 55 979.8
20260505060553 31 297 8.7 15.6 0.00 0.00 0.00 55 979.8
20260505060051 31 337 9.6 15.6 0.00 0.01 0.00 55 979.7
20260505055550 31 318 9.6 15.6 0.00 0.01 0.00 55 979.7
20260505055050 31 309 9.6 15.6 0.00 0.01 0.00 54 979.6
20260505054551 31 338 9.6 19.1 0.00 0.01 0.00 53 979.6
20260505054049 31 319 11.3 19.1 0.00 0.01 0.00 52 979.4
20260505053547 31 337 11.3 18.2 0.00 0.01 0.00 52 979.4
20260505053047 31 315 9.6 19.1 0.00 0.01 0.00 52 979.5
20260505052546 31 311 11.3 19.1 0.00 0.01 0.00 52 979.4
20260505052045 31 309 11.3 16.5 0.00 0.01 0.00 52 979.4
20260505051545 31 301 9.6 14.8 0.00 0.01 0.00 53 979.4
20260505051043 32 286 7.8 13.0 0.00 0.01 0.00 53 979.4
20260505050542 32 313 9.6 17.4 0.00 0.01 0.00 53 979.3
20260505041537 33 313 10.4 17.4 0.00 0.01 0.01 53 979.2
20260505041036 33 319 8.7 17.4 0.00 0.01 0.01 52 979.1
20260505040538 33 305 10.4 20.9 0.00 0.01 0.01 52 979.2
20260505040036 33 309 12.2 20.9 0.00 0.01 0.01 51 979.1
20260505035534 33 306 9.6 17.4 0.00 0.01 0.01 51 979.1
20260505035033 33 336 11.3 20.9 0.00 0.01 0.01 50 979.1
20260505034539 33 332 13.0 20.9 0.00 0.01 0.01 51 979.0
20260505034033 34 327 7.8 15.6 0.00 0.01 0.01 52 979.1
20260505033536 34 336 7.8 13.9 0.00 0.01 0.01 52 979.0
20260505033032 34 331 8.7 13.0 0.00 0.01 0.01 52 978.9
20260505032531 33 320 6.1 13.0 0.00 0.01 0.01 52 978.9
20260505032032 33 303 6.1 10.4 0.00 0.01 0.01 52 978.8
20260505031531 33 335 5.2 8.7 0.00 0.01 0.01 52 978.8
20260505031030 33 344 4.3 8.7 0.00 0.01 0.01 52 978.7
20260505030531 33 312 3.5 7.8 0.00 0.01 0.01 51 978.7
20260505030043 33 316 5.2 7.8 0.00 0.01 0.01 51 978.7
20260505025531 33 338 3.5 7.0 0.00 0.01 0.01 51 978.6
20260505025030 33 340 4.3 7.0 0.00 0.01 0.01 51 978.7
20260505024529 33 312 3.5 8.7 0.00 0.01 0.01 51 978.7
20260505024028 33 334 4.3 8.7 0.00 0.01 0.01 51 978.6
20260505023528 33 326 4.3 7.0 0.00 0.01 0.01 51 978.6
20260505023032 33 340 3.5 9.6 0.00 0.01 0.01 51 978.6
20260505022529 33 315 3.5 9.6 0.00 0.01 0.01 50 978.5
20260505022026 33 344 4.3 7.8 0.00 0.01 0.01 50 978.4
20260505021527 33 355 4.3 8.7 0.00 0.01 0.01 50 978.4
20260505021026 33 311 4.3 8.7 0.00 0.01 0.01 50 978.4
20260505020525 33 346 4.3 7.8 0.00 0.01 0.01 50 978.3
20260505020025 33 336 4.3 8.7 0.00 0.01 0.01 51 978.3
20260505015524 33 340 3.5 8.7 0.00 0.01 0.01 51 978.3
20260505015024 33 11 3.5 9.6 0.00 0.01 0.01 50 978.2
20260505014527 33 332 4.3 10.4 0.00 0.01 0.01 50 978.2
20260505014023 33 360 6.1 10.4 0.00 0.01 0.01 49 978.1
20260505013527 33 318 5.2 10.4 0.00 0.01 0.01 49 978.1
20260505013022 33 360 6.1 13.9 0.00 0.01 0.01 49 978.1
20260505012522 33 348 6.1 13.9 0.00 0.01 0.01 48 978.0
20260505012021 34 343 7.0 13.0 0.00 0.01 0.01 48 978.0
20260505011520 34 322 7.8 13.9 0.00 0.01 0.01 47 978.0
20260505011017 34 12 7.8 13.9 0.00 0.01 0.01 47 977.9
20260505010517 34 360 7.0 15.6 0.00 0.01 0.01 46 978.0
20260505010016 35 341 8.7 15.6 0.00 0.01 0.01 46 978.0
20260505005517 35 337 7.0 14.8 0.00 0.01 0.01 46 978.0
20260505005016 35 340 7.8 16.5 0.00 0.01 0.01 46 977.9
20260505004529 35 11 9.6 16.5 0.00 0.01 0.01 46 977.9
20260505004015 36 351 10.4 18.2 0.00 0.01 0.01 45 977.8
20260505003514 36 331 11.3 18.2 0.00 0.01 0.01 44 977.7
20260505003014 36 355 9.6 17.4 0.00 0.01 0.01 45 977.7
20260505002514 36 336 9.6 19.1 0.00 0.01 0.01 45 977.7
20260505002014 36 345 11.3 20.0 0.00 0.01 0.01 45 977.8
20260505001515 36 312 13.9 20.0 0.00 0.01 0.01 43 977.8
20260505001013 36 337 10.4 19.1 0.00 0.01 0.01 44 977.8
20260505000518 37 355 10.4 18.2 0.00 0.01 0.01 44 977.7
20260505000114 37 355 9.6 19.1 0.00 0.01 0.01 46 977.7
20260504235512 37 341 11.3 21.7 0.00 0.01 0.01 46 977.5
20260504235012 37 340 10.4 21.7 0.00 0.01 0.01 46 977.4
20260504234513 37 334 12.2 20.0 0.00 0.01 0.01 46 977.5
20260504234011 37 342 11.3 20.9 0.00 0.01 0.01 46 977.4
20260504233511 37 333 12.2 21.7 0.00 0.01 0.01 46 977.4
20260504233011 37 332 13.9 21.7 0.00 0.01 0.01 46 977.5
20260504232510 37 340 11.3 20.9 0.00 0.01 0.01 46 977.4
20260504232011 37 355 10.4 20.9 0.00 0.01 0.01 47 977.4
20260504231510 37 344 14.8 20.9 0.00 0.01 0.01 46 977.3
20260504231010 37 349 13.9 20.0 0.00 0.01 0.01 46 977.2
20260504230510 37 346 13.0 20.0 0.00 0.01 0.01 47 977.1
20260504230008 37 329 10.4 20.9 0.00 0.01 0.01 46 977.0
20260504225507 38 329 12.2 19.1 0.00 0.01 0.01 45 977.0
20260504225007 38 355 12.2 19.1 0.00 0.01 0.01 45 977.0
20260504224506 38 324 10.4 18.2 0.00 0.01 0.01 45 977.0
20260504224006 39 17 11.3 19.1 0.00 0.01 0.01 45 977.0
20260504223507 39 317 11.3 19.1 0.00 0.01 0.01 44 976.9
20260504223005 39 350 13.0 20.0 0.00 0.01 0.01 43 976.8
20260504222504 39 333 12.2 20.0 0.00 0.01 0.01 41 976.8
20260504222007 39 351 11.3 18.2 0.00 0.01 0.01 43 976.7
20260504221505 39 348 11.3 18.2 0.00 0.01 0.01 43 976.6
20260504221003 39 338 8.7 18.2 0.00 0.01 0.01 43 976.5
20260504220503 39 306 9.6 18.2 0.00 0.01 0.01 42 976.6
20260504220003 39 340 11.3 21.7 0.00 0.01 0.01 43 976.5
20260504215503 39 342 13.0 21.7 0.00 0.01 0.01 43 976.5
20260504215006 38 355 13.0 19.1 0.00 0.01 0.01 43 976.4
20260504214502 39 330 12.2 21.7 0.00 0.01 0.01 43 976.4
20260504214004 39 329 12.2 20.9 0.00 0.01 0.01 44 976.3
20260504213502 38 349 12.2 20.9 0.00 0.01 0.01 45 976.2
20260504213004 39 333 13.0 19.1 0.00 0.01 0.01 44 976.3
20260504212502 39 329 13.9 21.7 0.00 0.01 0.01 44 976.2
20260504212001 38 346 13.0 21.7 0.00 0.01 0.01 47 976.1
20260504211600 38 348 13.0 20.9 0.00 0.01 0.01 46 976.0
20260504211100 38 300 13.9 20.9 0.00 0.01 0.01 45 976.1
20260504210600 39 336 13.0 22.6 0.00 0.01 0.01 46 976.2
20260504210100 39 313 12.2 20.0 0.00 0.01 0.01 46 976.1
20260504205604 39 331 13.9 23.5 0.00 0.01 0.01 47 976.0
20260504205103 38 336 12.2 23.5 0.00 0.01 0.01 48 976.1
20260504204559 39 335 13.0 22.6 0.00 0.01 0.01 48 976.1
20260504204100 38 318 13.0 22.6 0.00 0.01 0.01 49 976.2
20260504203601 37 312 14.8 22.6 0.00 0.01 0.01 47 976.3
20260504203058 38 317 13.9 24.3 0.00 0.01 0.01 47 976.1
20260504202558 37 323 16.5 24.3 0.00 0.01 0.01 48 976.0
20260504202058 37 346 13.0 25.2 0.00 0.01 0.01 49 976.0
20260504201601 37 344 15.6 25.2 0.00 0.01 0.01 48 975.9
20260504201056 37 342 15.6 25.2 0.00 0.01 0.01 48 975.9
20260504200556 37 5 13.9 22.6 0.00 0.01 0.01 48 975.7
20260504200055 38 330 13.9 23.5 0.00 0.01 0.01 47 975.7
20260504195555 38 285 14.8 24.3 0.00 0.01 0.01 48 975.7
20260504195057 38 355 15.6 24.3 0.00 0.01 0.01 49 975.6
20260504194602 38 332 15.6 22.6 0.00 0.01 0.01 48 975.5
20260504194054 39 330 14.8 22.6 0.00 0.01 0.01 49 975.3
20260504193554 38 5 14.8 22.6 0.00 0.01 0.01 49 975.4
20260504193053 38 309 15.6 22.6 0.00 0.01 0.01 50 975.4
20260504192551 39 347 13.9 24.3 0.00 0.01 0.01 48 975.3
20260504192051 38 306 14.8 26.9 0.00 0.01 0.01 50 975.1
20260504191610 39 338 15.6 24.3 0.00 0.01 0.01 49 975.0
20260504191050 39 292 15.6 23.5 0.00 0.01 0.01 49 974.9
20260504190548 38 340 14.8 25.2 0.00 0.01 0.01 49 974.8
20260504190049 39 292 16.5 25.2 0.00 0.01 0.01 51 974.6
20260504185548 39 323 16.5 23.5 0.00 0.01 0.01 50 974.6
20260504185047 39 337 13.0 22.6 0.00 0.01 0.01 51 974.4
20260504184555 39 355 14.8 23.5 0.00 0.01 0.01 50 974.4
20260504184047 38 336 15.6 23.5 0.00 0.01 0.01 52 974.4
20260504183547 39 360 14.8 21.7 0.00 0.01 0.01 51 974.4
20260504183046 39 341 15.6 23.5 0.00 0.01 0.01 51 974.4
20260504182548 39 323 16.5 24.3 0.00 0.01 0.01 50 974.4
20260504182046 39 334 15.6 22.6 0.00 0.01 0.01 50 974.3
20260504181546 40 360 13.9 22.6 0.00 0.01 0.01 49 974.4
20260504181044 40 351 15.6 20.9 0.00 0.01 0.01 48 974.1
20260504180547 40 286 14.8 24.3 0.00 0.01 0.01 49 974.1
20260504180045 38 300 13.9 23.5 0.00 0.01 0.01 50 974.0
20260504175545 39 343 15.6 24.3 0.00 0.01 0.01 49 974.1
20260504175144 39 312 16.5 24.3 0.00 0.01 0.01 49 973.9
20260504174543 38 330 13.0 22.6 0.00 0.01 0.01 48 973.9
20260504174043 37 296 12.2 23.5 0.00 0.01 0.01 49 973.9
20260504173544 37 284 14.8 23.5 0.00 0.01 0.01 49 973.9
20260504173043 36 313 13.9 23.5 0.00 0.01 0.01 51 973.9
20260504172541 36 311 15.6 23.5 0.00 0.01 0.01 51 973.8
20260504172044 37 315 12.2 22.6 0.00 0.01 0.01 51 973.5
20260504171542 36 319 13.0 20.0 0.00 0.01 0.01 55 973.7
20260504171039 36 325 12.2 21.7 0.00 0.01 0.01 59 973.7
20260504170540 35 321 13.9 25.2 0.00 0.01 0.01 55 973.6
20260504151019 40 348 17.4 25.2 0.00 0.01 0.01 43 972.2
20260504150524 40 297 16.5 24.3 0.00 0.01 0.01 42 972.2
20260504141013 38 267 11.3 20.9 0.00 0.01 0.01 50 972.0
20260504140508 38 263 13.0 23.5 0.00 0.01 0.01 49 971.8
20260504130501 37 323 14.8 20.9 0.00 0.01 0.01 52 971.2